QPF
0.00 0.00 0.00 0.00 0.01 0.00 0.01 0.01 0.01 0.01 0.00 0.01 0.01 0.01 0.01 0.01 0.01 0.02 0.11 0.21 0.24 0.21 0.16 0.16 0.18 0.15 0.12 0.11 0.10 0.11 0.11 0.11 0.11 0.11 0.10 0.08 0.09 0.07 0.07 0.09 0.12 0.16 0.16 0.13 0.11 0.10 0.09 0.06 0.04
0.00 0.01 0.01 0.00 0.00 0.01 0.02 0.01 0.01 0.01 0.00 0.00 0.00 0.01 0.01 0.01 0.01 0.02 0.10 0.12 0.12 0.13 0.11 0.11 0.13 0.10 0.11 0.11 0.12 0.12 0.12 0.12 0.12 0.11 0.07 0.07 0.07 0.06 0.07 0.11 0.12 0.12 0.12 0.12 0.10 0.09 0.07 0.05 0.05
0.01 0.01 0.01 0.01 0.01 0.00 0.01 0.01 0.00 0.01 0.00 0.01 0.01 0.01 0.01 0.01 0.00 0.02 0.06 0.06 0.07 0.09 0.11 0.12 0.09 0.07 0.08 0.10 0.11 0.10 0.13 0.13 0.15 0.13 0.10 0.08 0.07 0.07 0.08 0.10 0.11 0.10 0.10 0.10 0.09 0.08 0.06 0.05 0.06
0.01 0.01 0.01 0.01 0.01 0.00 0.00 0.00 0.00 0.00 0.01 0.01 0.01 0.01 0.02 0.01 0.00 0.01 0.03 0.04 0.05 0.07 0.09 0.09 0.07 0.05 0.06 0.06 0.07 0.09 0.12 0.14 0.17 0.16 0.16 0.13 0.11 0.09 0.10 0.11 0.10 0.10 0.10 0.12 0.11 0.08 0.06 0.06 0.08
0.01 0.01 0.01 0.01 0.01 0.00 0.00 0.01 0.01 0.00 0.01 0.00 0.00 0.01 0.02 0.02 0.01 0.01 0.02 0.05 0.08 0.10 0.08 0.06 0.07 0.06 0.07 0.07 0.06 0.09 0.11 0.14 0.19 0.22 0.19 0.15 0.12 0.12 0.12 0.13 0.10 0.10 0.12 0.13 0.13 0.11 0.10 0.11 0.10
0.01 0.01 0.01 0.01 0.01 0.01 0.00 0.00 0.00 0.00 0.00 0.00 0.00 0.01 0.02 0.04 0.02 0.03 0.04 0.07 0.11 0.11 0.06 0.05 0.07 0.07 0.07 0.06 0.08 0.11 0.12 0.20 0.23 0.24 0.23 0.19 0.15 0.13 0.14 0.13 0.10 0.10 0.11 0.14 0.14 0.13 0.12 0.10 0.08
0.01 0.01 0.01 0.01 0.01 0.01 0.00 0.00 0.00 0.00 0.00 0.00 0.00 0.01 0.01 0.03 0.04 0.05 0.07 0.08 0.10 0.09 0.06 0.05 0.05 0.05 0.06 0.08 0.10 0.10 0.11 0.17 0.19 0.22 0.24 0.23 0.20 0.17 0.15 0.12 0.12 0.11 0.11 0.15 0.15 0.13 0.09 0.06 0.05
0.00 0.00 0.00 0.01 0.01 0.02 0.01 0.00 0.00 0.00 0.00 0.00 0.00 0.00 0.00 0.01 0.02 0.04 0.06 0.07 0.08 0.07 0.06 0.04 0.04 0.04 0.04 0.06 0.08 0.09 0.10 0.13 0.16 0.17 0.19 0.19 0.19 0.17 0.15 0.12 0.11 0.10 0.10 0.11 0.12 0.11 0.08 0.06 0.05
0.01 0.00 0.00 0.00 0.00 0.00 0.01 0.00 0.00 0.00 0.00 0.00 0.00 0.00 0.00 0.00 0.01 0.02 0.04 0.07 0.08 0.08 0.07 0.05 0.04 0.04 0.03 0.04 0.06 0.06 0.08 0.12 0.13 0.11 0.11 0.10 0.10 0.10 0.09 0.10 0.10 0.08 0.09 0.09 0.10 0.09 0.09 0.07 0.05
0.00 0.00 0.00 0.00 0.00 0.00 0.00 0.00 0.00 0.00 0.00 0.00 0.00 0.00 0.00 0.00 0.00 0.01 0.02 0.04 0.07 0.08 0.08 0.06 0.05 0.04 0.04 0.04 0.05 0.05 0.05 0.06 0.06 0.04 0.03 0.04 0.05 0.05 0.05 0.08 0.11 0.10 0.09 0.09 0.09 0.09 0.08 0.06 0.04
0.00 0.00 0.00 0.00 0.00 0.00 0.00 0.00 0.00 0.00 0.00 0.00 0.00 0.00 0.00 0.00 0.00 0.01 0.02 0.02 0.03 0.06 0.09 0.08 0.07 0.06 0.06 0.06 0.06 0.06 0.04 0.04 0.03 0.02 0.02 0.02 0.02 0.02 0.02 0.04 0.05 0.08 0.07 0.05 0.05 0.06 0.05 0.05 0.04
0.00 0.00 0.00 0.00 0.00 0.00 0.00 0.00 0.00 0.00 0.00 0.00 0.00 0.00 0.00 0.00 0.00 0.01 0.01 0.01 0.02 0.04 0.06 0.07 0.07 0.08 0.09 0.09 0.07 0.07 0.05 0.04 0.04 0.03 0.03 0.03 0.03 0.03 0.02 0.02 0.03 0.04 0.04 0.04 0.03 0.03 0.04 0.05 0.06
0.00 0.00 0.00 0.00 0.00 0.00 0.00 0.00 0.00 0.00 0.00 0.00 0.00 0.00 0.00 0.00 0.00 0.00 0.01 0.01 0.01 0.02 0.03 0.03 0.04 0.05 0.06 0.06 0.05 0.05 0.04 0.04 0.04 0.04 0.04 0.04 0.04 0.03 0.01 0.01 0.03 0.03 0.03 0.03 0.04 0.04 0.05 0.05 0.05
0.00 0.00 0.00 0.00 0.00 0.00 0.00 0.00 0.00 0.00 0.00 0.00 0.00 0.00 0.00 0.00 0.00 0.00 0.00 0.01 0.01 0.01 0.01 0.01 0.01 0.03 0.03 0.02 0.03 0.04 0.04 0.03 0.04 0.05 0.04 0.04 0.04 0.03 0.02 0.02 0.02 0.01 0.02 0.02 0.03 0.04 0.07 0.08 0.06
0.00 0.00 0.00 0.00 0.00 0.00 0.00 0.00 0.00 0.00 0.00 0.00 0.00 0.00 0.00 0.00 0.00 0.01 0.01 0.01 0.01 0.01 0.00 0.00 0.01 0.02 0.02 0.02 0.04 0.04 0.05 0.05 0.05 0.04 0.04 0.03 0.04 0.04 0.03 0.02 0.03 0.02 0.02 0.04 0.04 0.05 0.06 0.06 0.05
0.00 0.00 0.00 0.00 0.00 0.00 0.00 0.00 0.00 0.00 0.00 0.00 0.00 0.00 0.00 0.00 0.00 0.01 0.01 0.02 0.02 0.01 0.01 0.01 0.01 0.01 0.02 0.02 0.02 0.03 0.03 0.04 0.04 0.03 0.04 0.03 0.04 0.03 0.03 0.03 0.04 0.02 0.02 0.04 0.04 0.04 0.04 0.04 0.03
0.01 0.01 0.01 0.00 0.00 0.00 0.00 0.00 0.00 0.00 0.00 0.00 0.00 0.00 0.00 0.00 0.01 0.02 0.03 0.02 0.02 0.02 0.02 0.02 0.02 0.02 0.02 0.02 0.03 0.04 0.03 0.03 0.04 0.04 0.03 0.04 0.04 0.03 0.04 0.05 0.03 0.02 0.01 0.02 0.03 0.03 0.02 0.02 0.02
0.01 0.01 0.01 0.01 0.00 0.00 0.01 0.01 0.01 0.00 0.00 0.00 0.00 0.00 0.01 0.01 0.02 0.04 0.07 0.03 0.03 0.02 0.01 0.01 0.01 0.02 0.02 0.02 0.04 0.04 0.03 0.03 0.03 0.03 0.03 0.04 0.03 0.02 0.02 0.02 0.01 0.01 0.01 0.01 0.01 0.01 0.01 0.01 0.01
0.00 0.00 0.00 0.00 0.00 0.00 0.01 0.01 0.01 0.00 0.00 0.00 0.01 0.01 0.01 0.01 0.02 0.03 0.02 0.02 0.02 0.02 0.01 0.01 0.01 0.02 0.02 0.03 0.04 0.03 0.03 0.03 0.02 0.02 0.03 0.03 0.02 0.02 0.02 0.01 0.01 0.01 0.01 0.01 0.01 0.02 0.02 0.01 0.01
0.00 0.00 0.00 0.00 0.00 0.01 0.01 0.01 0.02 0.01 0.01 0.01 0.01 0.00 0.00 0.00 0.01 0.02 0.02 0.02 0.02 0.02 0.01 0.01 0.00 0.01 0.02 0.03 0.03 0.03 0.01 0.02 0.02 0.01 0.02 0.03 0.03 0.03 0.02 0.01 0.01 0.01 0.01 0.02 0.01 0.02 0.01 0.01 0.01
0.00 0.00 0.00 0.00 0.01 0.01 0.01 0.01 0.01 0.01 0.01 0.01 0.01 0.00 0.00 0.00 0.01 0.01 0.02 0.02 0.03 0.04 0.01 0.01 0.01 0.01 0.02 0.03 0.03 0.02 0.01 0.02 0.02 0.01 0.02 0.02 0.02 0.03 0.03 0.02 0.01 0.01 0.01 0.01 0.01 0.01 0.02 0.02 0.02
0.00 0.00 0.00 0.01 0.01 0.01 0.01 0.01 0.00 0.01 0.00 0.01 0.01 0.00 0.00 0.00 0.01 0.02 0.03 0.03 0.03 0.04 0.02 0.01 0.01 0.01 0.02 0.03 0.04 0.02 0.01 0.01 0.01 0.02 0.02 0.01 0.01 0.02 0.01 0.01 0.01 0.01 0.01 0.01 0.01 0.01 0.01 0.02 0.03
0.00 0.00 0.01 0.01 0.01 0.02 0.01 0.01 0.01 0.01 0.00 0.00 0.00 0.00 0.00 0.00 0.00 0.01 0.02 0.02 0.03 0.02 0.01 0.01 0.01 0.01 0.04 0.05 0.05 0.02 0.01 0.01 0.01 0.01 0.02 0.01 0.01 0.01 0.01 0.01 0.01 0.01 0.02 0.02 0.02 0.03 0.01 0.01 0.02
0.00 0.00 0.01 0.01 0.01 0.01 0.01 0.01 0.01 0.00 0.00 0.00 0.00 0.00 0.00 0.00 0.00 0.01 0.01 0.02 0.03 0.02 0.01 0.00 0.01 0.04 0.06 0.04 0.03 0.02 0.01 0.01 0.01 0.01 0.00 0.01 0.01 0.01 0.01 0.01 0.01 0.01 0.01 0.02 0.02 0.01 0.01 0.01 0.01
0.00 0.01 0.01 0.01 0.01 0.00 0.01 0.01 0.00 0.00 0.00 0.01 0.01 0.01 0.00 0.00 0.01 0.01 0.01 0.02 0.03 0.01 0.00 0.00 0.02 0.05 0.06 0.04 0.01 0.01 0.01 0.01 0.01 0.00 0.00 0.00 0.01 0.02 0.01 0.01 0.01 0.01 0.01 0.01 0.01 0.01 0.02 0.03 0.03
0.00 0.00 0.00 0.00 0.01 0.00 0.01 0.00 0.00 0.00 0.00 0.00 0.00 0.00 0.01 0.01 0.01 0.01 0.01 0.03 0.04 0.01 0.01 0.02 0.04 0.06 0.07 0.05 0.02 0.02 0.01 0.01 0.01 0.00 0.00 0.00 0.00 0.01 0.01 0.01 0.01 0.01 0.01 0.02 0.01 0.02 0.02 0.02 0.03
0.00 0.00 0.01 0.01 0.01 0.00 0.00 0.00 0.00 0.00 0.00 0.00 0.00 0.00 0.00 0.01 0.01 0.01 0.02 0.02 0.04 0.02 0.01 0.02 0.03 0.03 0.03 0.02 0.01 0.01 0.01 0.00 0.00 0.00 0.00 0.00 0.00 0.01 0.01 0.01 0.01 0.02 0.03 0.02 0.01 0.01 0.02 0.01 0.01
0.00 0.00 0.01 0.00 0.00 0.00 0.00 0.00 0.00 0.00 0.00 0.00 0.00 0.00 0.00 0.01 0.01 0.01 0.01 0.01 0.02 0.01 0.01 0.01 0.01 0.01 0.02 0.02 0.02 0.02 0.04 0.03 0.01 0.00 0.00 0.00 0.00 0.00 0.01 0.01 0.01 0.03 0.03 0.01 0.00 0.00 0.01 0.02 0.02
0.00 0.01 0.00 0.01 0.00 0.00 0.00 0.00 0.00 0.00 0.00 0.00 0.00 0.00 0.01 0.01 0.01 0.01 0.01 0.01 0.01 0.01 0.00 0.00 0.01 0.01 0.01 0.02 0.03 0.04 0.07 0.06 0.02 0.01 0.00 0.00 0.00 0.00 0.00 0.01 0.01 0.01 0.01 0.01 0.01 0.01 0.01 0.02 0.02
0.00 0.00 0.01 0.01 0.00 0.00 0.00 0.00 0.00 0.00 0.00 0.00 0.00 0.00 0.00 0.01 0.01 0.01 0.01 0.01 0.01 0.01 0.00 0.00 0.00 0.01 0.01 0.02 0.04 0.05 0.06 0.03 0.02 0.01 0.01 0.00 0.00 0.00 0.00 0.00 0.00 0.01 0.02 0.02 0.02 0.02 0.02 0.01 0.01
MSLP
1006.63 1007.83 1009.30 1010.90 1012.44 1013.75 1014.71 1015.26 1015.44 1015.34 1015.11 1014.87 1014.74 1014.74 1014.87 1015.04 1015.16 1015.14 1014.93 1014.53 1014.00 1013.40 1012.84 1012.38 1012.08 1011.93 1011.87 1011.86 1011.82 1011.72 1011.55 1011.31 1011.05 1010.82 1010.65 1010.55 1010.52 1010.54 1010.58 1010.59 1010.58 1010.54 1010.50 1010.47 1010.48 1010.55 1010.67 1010.84 1011.04
1007.27 1008.71 1010.36 1012.03 1013.52 1014.69 1015.42 1015.72 1015.63 1015.29 1014.85 1014.47 1014.25 1014.21 1014.34 1014.55 1014.73 1014.79 1014.67 1014.36 1013.91 1013.38 1012.88 1012.47 1012.20 1012.07 1012.03 1012.03 1012.02 1011.97 1011.85 1011.69 1011.51 1011.35 1011.24 1011.19 1011.19 1011.22 1011.25 1011.26 1011.24 1011.20 1011.15 1011.12 1011.13 1011.19 1011.31 1011.46 1011.64
1008.03 1009.66 1011.41 1013.07 1014.46 1015.45 1015.97 1016.02 1015.71 1015.18 1014.60 1014.13 1013.86 1013.82 1013.95 1014.18 1014.40 1014.50 1014.42 1014.17 1013.79 1013.33 1012.90 1012.55 1012.33 1012.23 1012.22 1012.25 1012.28 1012.27 1012.20 1012.10 1011.98 1011.88 1011.82 1011.80 1011.81 1011.84 1011.86 1011.86 1011.83 1011.78 1011.74 1011.72 1011.74 1011.81 1011.92 1012.07 1012.25
1008.84 1010.59 1012.36 1013.95 1015.21 1016.00 1016.31 1016.17 1015.70 1015.06 1014.42 1013.94 1013.67 1013.63 1013.78 1014.02 1014.24 1014.34 1014.28 1014.06 1013.72 1013.33 1012.96 1012.68 1012.51 1012.46 1012.49 1012.55 1012.61 1012.62 1012.59 1012.53 1012.46 1012.39 1012.36 1012.36 1012.38 1012.40 1012.41 1012.39 1012.36 1012.32 1012.29 1012.29 1012.34 1012.42 1012.55 1012.70 1012.88
1009.64 1011.43 1013.15 1014.62 1015.70 1016.31 1016.44 1016.17 1015.62 1014.96 1014.35 1013.91 1013.70 1013.70 1013.86 1014.09 1014.29 1014.36 1014.29 1014.07 1013.76 1013.42 1013.12 1012.91 1012.81 1012.80 1012.86 1012.94 1013.01 1013.03 1013.01 1012.96 1012.91 1012.87 1012.85 1012.85 1012.87 1012.89 1012.90 1012.89 1012.86 1012.84 1012.83 1012.86 1012.92 1013.03 1013.17 1013.32 1013.48
1010.36 1012.11 1013.71 1015.02 1015.92 1016.36 1016.37 1016.03 1015.49 1014.89 1014.38 1014.05 1013.93 1013.99 1014.18 1014.39 1014.54 1014.57 1014.46 1014.23 1013.94 1013.65 1013.41 1013.26 1013.21 1013.24 1013.32 1013.39 1013.44 1013.45 1013.42 1013.37 1013.32 1013.28 1013.28 1013.29 1013.32 1013.34 1013.35 1013.34 1013.33 1013.32 1013.33 1013.38 1013.47 1013.59 1013.73 1013.87 1014.02
1010.95 1012.59 1014.04 1015.16 1015.87 1016.17 1016.10 1015.77 1015.30 1014.83 1014.48 1014.29 1014.29 1014.42 1014.62 1014.81 1014.91 1014.89 1014.74 1014.50 1014.23 1013.97 1013.79 1013.70 1013.69 1013.74 1013.81 1013.86 1013.88 1013.85 1013.79 1013.72 1013.66 1013.64 1013.65 1013.68 1013.71 1013.75 1013.76 1013.75 1013.74 1013.74 1013.77 1013.83 1013.92 1014.04 1014.18 1014.30 1014.42
1011.38 1012.89 1014.15 1015.07 1015.62 1015.81 1015.71 1015.42 1015.07 1014.76 1014.59 1014.56 1014.68 1014.88 1015.10 1015.26 1015.31 1015.24 1015.06 1014.81 1014.56 1014.34 1014.21 1014.16 1014.17 1014.22 1014.27 1014.28 1014.25 1014.18 1014.09 1014.01 1013.95 1013.94 1013.97 1014.02 1014.08 1014.12 1014.13 1014.12 1014.10 1014.09 1014.10 1014.15 1014.24 1014.35 1014.47 1014.58 1014.66
1011.68 1013.03 1014.10 1014.85 1015.25 1015.36 1015.25 1015.03 1014.81 1014.67 1014.66 1014.79 1015.01 1015.27 1015.50 1015.63 1015.64 1015.53 1015.32 1015.08 1014.85 1014.68 1014.59 1014.57 1014.60 1014.64 1014.66 1014.63 1014.55 1014.43 1014.32 1014.23 1014.18 1014.20 1014.26 1014.34 1014.41 1014.46 1014.47 1014.44 1014.39 1014.35 1014.33 1014.35 1014.41 1014.50 1014.60 1014.68 1014.75
1011.90 1013.09 1013.99 1014.57 1014.86 1014.91 1014.81 1014.67 1014.57 1014.57 1014.71 1014.95 1015.24 1015.53 1015.75 1015.85 1015.83 1015.69 1015.48 1015.25 1015.06 1014.94 1014.89 1014.90 1014.93 1014.96 1014.94 1014.87 1014.75 1014.61 1014.48 1014.39 1014.38 1014.42 1014.52 1014.63 1014.72 1014.77 1014.76 1014.70 1014.62 1014.52 1014.46 1014.44 1014.46 1014.51 1014.59 1014.66 1014.71
1012.11 1013.16 1013.90 1014.35 1014.54 1014.55 1014.47 1014.39 1014.38 1014.49 1014.72 1015.02 1015.35 1015.64 1015.83 1015.90 1015.85 1015.70 1015.50 1015.30 1015.15 1015.07 1015.06 1015.10 1015.14 1015.15 1015.11 1015.01 1014.86 1014.71 1014.59 1014.53 1014.54 1014.62 1014.75 1014.89 1014.99 1015.04 1015.01 1014.92 1014.78 1014.64 1014.52 1014.45 1014.43 1014.45 1014.50 1014.56 1014.61
1012.38 1013.30 1013.92 1014.25 1014.37 1014.35 1014.28 1014.25 1014.30 1014.47 1014.73 1015.05 1015.37 1015.62 1015.78 1015.82 1015.74 1015.59 1015.41 1015.25 1015.14 1015.11 1015.13 1015.18 1015.23 1015.23 1015.18 1015.07 1014.93 1014.78 1014.67 1014.64 1014.68 1014.79 1014.95 1015.10 1015.21 1015.25 1015.20 1015.07 1014.90 1014.71 1014.55 1014.43 1014.38 1014.37 1014.40 1014.44 1014.49
1012.76 1013.56 1014.07 1014.32 1014.39 1014.35 1014.29 1014.27 1014.35 1014.52 1014.78 1015.07 1015.34 1015.55 1015.66 1015.66 1015.57 1015.42 1015.27 1015.14 1015.07 1015.07 1015.11 1015.18 1015.23 1015.24 1015.20 1015.10 1014.97 1014.84 1014.76 1014.74 1014.80 1014.93 1015.09 1015.24 1015.35 1015.37 1015.31 1015.17 1014.97 1014.77 1014.58 1014.43 1014.35 1014.32 1014.33 1014.36 1014.39
1013.24 1013.94 1014.36 1014.55 1014.58 1014.53 1014.47 1014.46 1014.52 1014.67 1014.87 1015.10 1015.31 1015.46 1015.52 1015.50 1015.41 1015.28 1015.14 1015.05 1015.00 1015.02 1015.07 1015.14 1015.20 1015.22 1015.19 1015.11 1015.01 1014.91 1014.85 1014.84 1014.91 1015.02 1015.16 1015.29 1015.38 1015.40 1015.33 1015.19 1015.01 1014.80 1014.62 1014.47 1014.38 1014.33 1014.33 1014.34 1014.35
1013.77 1014.37 1014.72 1014.86 1014.88 1014.83 1014.77 1014.74 1014.78 1014.88 1015.01 1015.17 1015.30 1015.39 1015.42 1015.39 1015.31 1015.20 1015.09 1015.01 1014.98 1014.99 1015.04 1015.11 1015.17 1015.20 1015.19 1015.15 1015.08 1015.01 1014.96 1014.95 1014.98 1015.06 1015.16 1015.25 1015.31 1015.31 1015.26 1015.15 1015.00 1014.83 1014.68 1014.55 1014.46 1014.41 1014.39 1014.38 1014.36
1014.27 1014.78 1015.07 1015.20 1015.22 1015.18 1015.13 1015.09 1015.08 1015.11 1015.17 1015.24 1015.31 1015.35 1015.37 1015.34 1015.29 1015.21 1015.14 1015.07 1015.03 1015.03 1015.06 1015.10 1015.16 1015.20 1015.22 1015.21 1015.18 1015.13 1015.09 1015.06 1015.05 1015.06 1015.09 1015.12 1015.14 1015.14 1015.11 1015.04 1014.95 1014.85 1014.75 1014.66 1014.59 1014.54 1014.50 1014.46 1014.42
1014.65 1015.08 1015.34 1015.49 1015.54 1015.53 1015.48 1015.42 1015.37 1015.32 1015.29 1015.28 1015.29 1015.31 1015.33 1015.34 1015.33 1015.30 1015.26 1015.20 1015.16 1015.12 1015.12 1015.13 1015.17 1015.22 1015.27 1015.30 1015.31 1015.29 1015.25 1015.18 1015.11 1015.05 1014.99 1014.96 1014.93 1014.92 1014.92 1014.91 1014.90 1014.87 1014.84 1014.80 1014.76 1014.71 1014.65 1014.59 1014.51
1014.83 1015.22 1015.50 1015.69 1015.80 1015.84 1015.82 1015.73 1015.61 1015.48 1015.36 1015.27 1015.22 1015.22 1015.26 1015.32 1015.38 1015.41 1015.41 1015.38 1015.32 1015.25 1015.21 1015.19 1015.21 1015.27 1015.35 1015.42 1015.47 1015.48 1015.44 1015.34 1015.21 1015.06 1014.92 1014.81 1014.74 1014.72 1014.74 1014.79 1014.85 1014.91 1014.95 1014.96 1014.94 1014.89 1014.82 1014.73 1014.64
1014.80 1015.20 1015.54 1015.82 1016.03 1016.13 1016.13 1016.02 1015.82 1015.58 1015.34 1015.15 1015.05 1015.03 1015.10 1015.23 1015.37 1015.48 1015.54 1015.53 1015.47 1015.38 1015.30 1015.25 1015.25 1015.32 1015.43 1015.55 1015.65 1015.70 1015.66 1015.55 1015.36 1015.14 1014.93 1014.74 1014.63 1014.59 1014.63 1014.73 1014.86 1014.99 1015.09 1015.15 1015.15 1015.10 1015.01 1014.91 1014.80
1014.60 1015.06 1015.52 1015.94 1016.27 1016.46 1016.47 1016.31 1016.02 1015.64 1015.26 1014.95 1014.76 1014.72 1014.82 1015.01 1015.23 1015.44 1015.57 1015.61 1015.56 1015.46 1015.35 1015.28 1015.28 1015.36 1015.50 1015.68 1015.84 1015.93 1015.93 1015.81 1015.60 1015.33 1015.05 1014.81 1014.66 1014.60 1014.65 1014.78 1014.96 1015.14 1015.28 1015.36 1015.37 1015.32 1015.22 1015.11 1015.01
1014.31 1014.90 1015.53 1016.13 1016.60 1016.87 1016.89 1016.67 1016.24 1015.69 1015.13 1014.67 1014.37 1014.28 1014.38 1014.63 1014.95 1015.25 1015.47 1015.57 1015.56 1015.47 1015.35 1015.27 1015.27 1015.37 1015.55 1015.79 1016.01 1016.17 1016.21 1016.12 1015.91 1015.62 1015.31 1015.03 1014.84 1014.77 1014.82 1014.96 1015.15 1015.35 1015.51 1015.60 1015.61 1015.55 1015.45 1015.34 1015.25
1014.05 1014.82 1015.66 1016.45 1017.08 1017.42 1017.44 1017.12 1016.53 1015.78 1015.00 1014.35 1013.91 1013.73 1013.82 1014.10 1014.50 1014.90 1015.21 1015.39 1015.43 1015.37 1015.27 1015.19 1015.21 1015.33 1015.56 1015.85 1016.15 1016.38 1016.49 1016.45 1016.27 1015.99 1015.67 1015.38 1015.17 1015.08 1015.11 1015.24 1015.43 1015.63 1015.78 1015.86 1015.86 1015.79 1015.69 1015.58 1015.51
1013.92 1014.90 1015.96 1016.95 1017.72 1018.12 1018.11 1017.67 1016.89 1015.91 1014.90 1014.03 1013.41 1013.13 1013.17 1013.47 1013.92 1014.41 1014.82 1015.09 1015.20 1015.19 1015.12 1015.06 1015.09 1015.25 1015.52 1015.86 1016.23 1016.53 1016.72 1016.75 1016.62 1016.38 1016.08 1015.79 1015.57 1015.47 1015.48 1015.59 1015.76 1015.93 1016.06 1016.12 1016.10 1016.02 1015.91 1015.81 1015.75
1013.98 1015.17 1016.43 1017.59 1018.47 1018.91 1018.84 1018.27 1017.30 1016.08 1014.82 1013.73 1012.93 1012.52 1012.49 1012.78 1013.28 1013.84 1014.33 1014.69 1014.88 1014.93 1014.90 1014.88 1014.93 1015.11 1015.41 1015.81 1016.22 1016.60 1016.85 1016.95 1016.90 1016.71 1016.45 1016.18 1015.98 1015.86 1015.86 1015.94 1016.07 1016.21 1016.31 1016.34 1016.30 1016.21 1016.09 1016.00 1015.96
1014.22 1015.58 1017.01 1018.29 1019.23 1019.67 1019.53 1018.83 1017.66 1016.23 1014.76 1013.45 1012.49 1011.95 1011.84 1012.11 1012.62 1013.23 1013.81 1014.24 1014.51 1014.63 1014.66 1014.67 1014.74 1014.94 1015.26 1015.67 1016.13 1016.54 1016.86 1017.03 1017.04 1016.91 1016.71 1016.49 1016.30 1016.19 1016.17 1016.23 1016.34 1016.44 1016.51 1016.51 1016.45 1016.34 1016.23 1016.14 1016.10
1014.58 1016.05 1017.57 1018.91 1019.86 1020.27 1020.04 1019.21 1017.90 1016.30 1014.66 1013.19 1012.09 1011.44 1011.27 1011.50 1012.02 1012.66 1013.29 1013.80 1014.14 1014.32 1014.40 1014.44 1014.54 1014.74 1015.06 1015.48 1015.94 1016.38 1016.73 1016.95 1017.02 1016.96 1016.82 1016.65 1016.50 1016.41 1016.39 1016.44 1016.52 1016.60 1016.64 1016.62 1016.55 1016.44 1016.32 1016.23 1016.19
1014.96 1016.46 1017.99 1019.32 1020.22 1020.56 1020.25 1019.32 1017.91 1016.21 1014.47 1012.92 1011.73 1011.02 1010.79 1010.99 1011.50 1012.16 1012.82 1013.39 1013.79 1014.03 1014.16 1014.24 1014.35 1014.55 1014.85 1015.25 1015.69 1016.12 1016.48 1016.72 1016.84 1016.84 1016.76 1016.65 1016.55 1016.50 1016.51 1016.56 1016.63 1016.70 1016.73 1016.71 1016.63 1016.52 1016.40 1016.30 1016.26
1015.26 1016.72 1018.17 1019.40 1020.20 1020.44 1020.05 1019.07 1017.63 1015.91 1014.16 1012.60 1011.40 1010.66 1010.42 1010.60 1011.09 1011.75 1012.43 1013.03 1013.48 1013.77 1013.95 1014.07 1014.20 1014.39 1014.66 1015.01 1015.41 1015.81 1016.15 1016.41 1016.55 1016.60 1016.59 1016.54 1016.50 1016.50 1016.54 1016.62 1016.71 1016.78 1016.82 1016.80 1016.72 1016.62 1016.50 1016.40 1016.34
1015.42 1016.74 1018.03 1019.09 1019.75 1019.87 1019.42 1018.43 1017.02 1015.36 1013.70 1012.21 1011.07 1010.37 1010.13 1010.30 1010.78 1011.42 1012.11 1012.72 1013.21 1013.55 1013.78 1013.94 1014.09 1014.27 1014.52 1014.83 1015.17 1015.52 1015.83 1016.07 1016.23 1016.32 1016.36 1016.38 1016.41 1016.47 1016.57 1016.69 1016.81 1016.90 1016.95 1016.94 1016.88 1016.78 1016.66 1016.56 1016.48
1015.41 1016.54 1017.61 1018.45 1018.92 1018.92 1018.42 1017.46 1016.14 1014.62 1013.11 1011.77 1010.75 1010.13 1009.92 1010.09 1010.54 1011.17 1011.83 1012.45 1012.97 1013.36 1013.64 1013.84 1014.02 1014.22 1014.44 1014.71 1015.01 1015.30 1015.57 1015.78 1015.95 1016.07 1016.17 1016.26 1016.36 1016.49 1016.65 1016.82 1016.98 1017.10 1017.17 1017.18 1017.14 1017.05 1016.93 1016.81 1016.71
Thickness
5826 5822 5815 5801 5776 5749 5741 5751 5758 5756 5755 5762 5764 5758 5749 5742 5737 5734 5753 5762 5762 5762 5763 5763 5764 5764 5764 5765 5766 5766 5767 5769 5770 5771 5771 5772 5772 5773 5773 5773 5772 5772 5772 5771 5770 5769 5768 5768 5766
5829 5823 5810 5791 5759 5733 5739 5754 5755 5758 5763 5767 5765 5759 5751 5746 5751 5751 5755 5760 5762 5762 5762 5763 5763 5763 5763 5763 5764 5765 5766 5767 5768 5769 5769 5770 5770 5770 5771 5771 5770 5770 5769 5769 5768 5768 5766 5766 5765
5831 5825 5801 5778 5754 5740 5745 5758 5760 5766 5771 5768 5761 5759 5752 5748 5753 5754 5759 5761 5761 5761 5761 5762 5762 5762 5762 5762 5763 5763 5764 5765 5766 5767 5768 5768 5768 5769 5769 5769 5768 5768 5767 5767 5766 5765 5764 5764 5763
5829 5814 5796 5771 5758 5762 5763 5765 5768 5766 5769 5768 5761 5753 5755 5761 5760 5760 5762 5762 5760 5760 5760 5761 5761 5761 5761 5761 5761 5762 5763 5763 5764 5766 5766 5767 5767 5767 5767 5766 5766 5765 5765 5764 5764 5763 5763 5762 5761
5827 5803 5777 5760 5763 5772 5776 5776 5774 5766 5764 5764 5761 5749 5749 5761 5765 5764 5762 5761 5759 5758 5759 5760 5760 5760 5760 5760 5760 5761 5762 5762 5763 5764 5764 5765 5765 5765 5764 5764 5764 5763 5763 5762 5762 5761 5761 5760 5759
5812 5794 5764 5754 5764 5774 5778 5781 5775 5767 5765 5765 5760 5750 5749 5761 5762 5762 5762 5760 5759 5758 5758 5759 5759 5759 5759 5759 5759 5760 5761 5760 5761 5762 5762 5763 5763 5762 5762 5762 5761 5761 5761 5760 5760 5760 5759 5758 5757
5805 5785 5768 5766 5765 5770 5778 5783 5775 5769 5765 5766 5766 5750 5750 5758 5762 5763 5761 5760 5759 5758 5757 5757 5757 5758 5757 5757 5757 5758 5758 5758 5759 5759 5760 5760 5760 5760 5760 5760 5760 5759 5759 5758 5758 5758 5758 5757 5756
5817 5792 5774 5769 5768 5772 5784 5785 5782 5776 5771 5778 5773 5754 5749 5759 5763 5762 5760 5758 5757 5757 5756 5756 5756 5756 5756 5755 5756 5756 5757 5757 5757 5757 5757 5758 5758 5758 5758 5758 5758 5757 5757 5757 5756 5756 5756 5756 5755
5824 5786 5770 5775 5775 5779 5788 5783 5785 5789 5780 5777 5776 5769 5768 5768 5764 5760 5756 5755 5755 5756 5756 5756 5756 5755 5755 5754 5754 5755 5755 5755 5755 5756 5756 5756 5756 5756 5756 5756 5756 5756 5756 5756 5756 5755 5755 5755 5754
5812 5783 5787 5797 5796 5792 5792 5787 5785 5781 5773 5770 5770 5772 5772 5768 5762 5757 5754 5753 5753 5754 5756 5756 5756 5755 5755 5754 5753 5753 5753 5753 5753 5754 5754 5755 5755 5755 5755 5755 5755 5755 5755 5755 5755 5755 5754 5754 5753
5815 5800 5807 5810 5809 5804 5795 5791 5792 5778 5768 5772 5770 5770 5770 5766 5762 5758 5756 5756 5756 5757 5757 5757 5757 5756 5755 5754 5753 5752 5752 5751 5751 5752 5752 5753 5753 5753 5753 5753 5753 5753 5753 5753 5754 5753 5753 5753 5752
5818 5817 5819 5815 5814 5806 5798 5794 5789 5784 5782 5789 5785 5780 5773 5767 5763 5761 5758 5758 5759 5758 5758 5759 5758 5757 5756 5755 5754 5752 5751 5751 5750 5751 5751 5752 5752 5752 5752 5752 5752 5752 5752 5752 5752 5752 5752 5752 5752
5819 5818 5821 5819 5814 5808 5802 5794 5791 5788 5793 5793 5788 5781 5775 5770 5767 5766 5765 5763 5761 5760 5760 5760 5760 5758 5757 5756 5755 5753 5752 5751 5751 5751 5751 5752 5751 5751 5751 5751 5751 5751 5751 5752 5752 5751 5751 5751 5751
5822 5819 5816 5814 5812 5809 5798 5793 5791 5789 5795 5791 5785 5780 5778 5774 5771 5768 5766 5764 5763 5763 5762 5763 5761 5760 5759 5757 5756 5754 5753 5753 5752 5752 5752 5751 5752 5751 5751 5751 5751 5752 5752 5752 5751 5750 5750 5750 5749
5827 5812 5808 5809 5809 5806 5800 5785 5788 5795 5795 5788 5785 5782 5779 5777 5775 5772 5771 5769 5768 5766 5766 5764 5763 5762 5760 5759 5757 5756 5755 5754 5753 5753 5753 5752 5752 5752 5752 5752 5752 5752 5752 5751 5750 5750 5749 5748 5748
5816 5799 5788 5802 5808 5806 5794 5774 5792 5798 5793 5786 5786 5784 5781 5779 5779 5778 5777 5774 5772 5770 5768 5767 5767 5764 5762 5760 5759 5758 5756 5756 5755 5755 5754 5754 5753 5753 5753 5752 5752 5752 5752 5751 5750 5749 5747 5746 5745
5793 5782 5783 5795 5808 5804 5793 5782 5795 5800 5794 5787 5787 5786 5783 5781 5780 5781 5780 5777 5775 5773 5771 5768 5767 5765 5763 5762 5760 5759 5757 5756 5756 5756 5756 5755 5755 5754 5754 5753 5753 5752 5752 5751 5750 5748 5746 5744 5743
5783 5783 5785 5789 5804 5802 5791 5787 5795 5799 5796 5790 5789 5787 5785 5783 5783 5785 5783 5781 5778 5775 5773 5770 5768 5766 5765 5763 5761 5759 5758 5757 5757 5757 5757 5756 5756 5755 5755 5754 5753 5753 5751 5750 5749 5747 5745 5744 5742
5801 5792 5787 5795 5809 5801 5791 5788 5794 5798 5795 5791 5789 5788 5787 5787 5789 5788 5786 5784 5780 5776 5773 5771 5768 5767 5765 5762 5760 5758 5756 5757 5758 5758 5758 5757 5757 5756 5755 5754 5753 5752 5751 5750 5748 5746 5744 5741 5741
5801 5791 5790 5798 5808 5800 5789 5789 5797 5800 5799 5798 5795 5792 5791 5788 5787 5788 5786 5784 5781 5778 5775 5773 5771 5769 5767 5765 5763 5761 5760 5759 5759 5759 5758 5757 5757 5756 5756 5754 5753 5752 5750 5749 5748 5746 5742 5740 5740
5798 5793 5792 5791 5798 5798 5790 5782 5790 5799 5803 5802 5801 5799 5797 5794 5791 5790 5788 5786 5784 5781 5779 5777 5773 5771 5769 5767 5765 5762 5760 5759 5758 5757 5757 5757 5757 5757 5756 5755 5753 5752 5751 5749 5748 5746 5743 5739 5738
5789 5806 5803 5796 5782 5770 5781 5759 5782 5791 5794 5799 5801 5801 5801 5801 5798 5794 5791 5789 5788 5786 5784 5780 5777 5774 5771 5769 5766 5762 5758 5756 5756 5757 5757 5757 5757 5756 5755 5755 5753 5752 5751 5749 5748 5746 5744 5741 5737
5801 5809 5800 5791 5777 5767 5771 5761 5772 5788 5786 5796 5804 5807 5808 5807 5804 5800 5798 5795 5793 5791 5787 5783 5779 5776 5773 5771 5768 5764 5761 5759 5758 5757 5756 5756 5756 5755 5755 5754 5753 5752 5751 5749 5748 5746 5744 5742 5739
5806 5794 5784 5772 5763 5749 5765 5759 5765 5781 5792 5802 5810 5813 5814 5812 5810 5806 5803 5800 5796 5794 5790 5786 5781 5777 5775 5772 5769 5766 5763 5760 5758 5756 5755 5754 5754 5754 5754 5754 5753 5752 5750 5749 5748 5746 5744 5742 5740
5795 5769 5744 5741 5733 5740 5762 5760 5769 5801 5810 5813 5815 5818 5819 5817 5812 5808 5803 5800 5797 5795 5792 5788 5783 5779 5776 5773 5771 5768 5766 5763 5760 5758 5756 5754 5753 5753 5753 5753 5752 5751 5750 5749 5748 5746 5744 5742 5740
5783 5773 5744 5731 5728 5739 5756 5756 5785 5812 5819 5822 5823 5823 5821 5818 5816 5812 5809 5805 5802 5799 5796 5791 5786 5782 5779 5775 5772 5769 5768 5765 5763 5761 5759 5756 5755 5754 5754 5753 5752 5751 5750 5749 5747 5745 5743 5741 5740
5778 5770 5772 5747 5740 5736 5746 5764 5790 5812 5815 5817 5819 5820 5820 5820 5818 5816 5813 5810 5806 5802 5799 5796 5790 5785 5781 5778 5774 5771 5769 5766 5764 5762 5760 5758 5756 5755 5753 5752 5751 5750 5749 5747 5745 5743 5741 5740 5738
5789 5773 5754 5740 5726 5727 5744 5756 5770 5795 5803 5810 5813 5816 5819 5820 5819 5817 5816 5813 5810 5807 5803 5799 5794 5789 5785 5780 5776 5773 5769 5766 5764 5762 5760 5758 5756 5755 5753 5752 5750 5748 5746 5745 5743 5741 5739 5737 5735
5772 5765 5751 5738 5741 5728 5729 5753 5797 5801 5808 5809 5814 5818 5819 5819 5819 5818 5817 5815 5812 5808 5804 5799 5794 5789 5785 5781 5778 5774 5771 5767 5765 5762 5761 5759 5757 5755 5753 5751 5749 5747 5745 5743 5741 5739 5737 5735 5732
5780 5768 5754 5744 5737 5733 5734 5757 5810 5810 5813 5813 5814 5817 5818 5819 5819 5818 5817 5814 5810 5807 5804 5799 5795 5790 5787 5783 5779 5774 5770 5767 5765 5763 5761 5759 5757 5755 5752 5750 5748 5746 5744 5742 5739 5737 5735 5732 5730